sat.trackr.live / text

‹ back to catalog

STARLINK-36626

NORAD 67603 · 2026-018Q

PAYLOAD ACTIVE UNKNOWN

§ Identity

Operator
Country
US
Launch date
2026-01-29
Launch site
AFWTR
Launch vehicle
Mass (kg)
RCS (m²)

Purposes: comms

External: N2YO · Heavens-Above · Gunter

§ Orbital elements

Epoch: 2026-05-25T03:22:34.549824Z

Period
93.91 min
Inclination
97.2840°
Eccentricity
0.0000344
Mean motion
15.33446603 rev/d
Perigee alt
465.3 km
Apogee alt
465.8 km
Semi-major
6,843.7 km
B*
4.2193e-4
RAAN
210.3167°
Arg perigee
342.5488°
Mean anomaly
17.5743°
Rev number
1,905

§ Raw data

STARLINK-366261 67603U 26018Q   26145.14067766  .00013571  00000+0  42193-3 0  99922 67603  97.2840 210.3167 0000344 342.5488  17.5743 15.33446603 19056

JSON: /api/v1/satellites/67603 · /tle

For live sub-satellite position, see the globe view (requires WebGL).

§ Visibility from observer

Set your observer location to see the next 7 days of passes ≥ 10°. The values pass through the URL so the page stays shareable.

No JS? Fill the form by hand. The geolocation button needs JavaScript.